Time,TemperatureF,DewpointF,PressureIn,WindDirection,WindDirectionDegrees,WindSpeedMPH,WindSpeedGustMPH,Humidity,HourlyPrecipIn,Conditions,Clouds,dailyrainin,SolarRadiationWatts/m^2,SoftwareType,DateUTC
2013-03-07 00:00:00,68.2,60.3,26.00,SE,125,3.0,6.0,76,0.00,,,0.00,0,Wunderground v.1.15,2013-03-07 06:00:00,
2013-03-07 00:05:00,67.8,60.0,26.00,ENE,57,3.0,6.0,76,0.00,,,0.00,0,Wunderground v.1.15,2013-03-07 06:05:00,
2013-03-07 00:10:00,67.7,60.2,26.00,ENE,65,2.0,2.0,77,0.00,,,0.00,0,Wunderground v.1.15,2013-03-07 06:10:00,
2013-03-07 00:15:00,67.7,60.2,26.00,SE,140,1.0,2.0,77,0.00,,,0.00,0,Wunderground v.1.15,2013-03-07 06:15:00,
2013-03-07 00:20:00,67.7,60.2,25.99,SSE,148,2.0,6.0,77,0.00,,,0.00,0,Wunderground v.1.15,2013-03-07 06:20:00,
2013-03-07 00:30:00,67.7,59.9,25.98,SSE,148,3.0,3.0,76,0.00,,,0.00,0,Wunderground v.1.15,2013-03-07 06:30:00,
2013-03-07 00:35:00,67.8,60.0,25.98,SSE,155,3.0,5.0,76,0.00,,,0.00,0,Wunderground v.1.15,2013-03-07 06:35:00,
2013-03-07 00:40:00,67.8,60.0,25.98,SE,142,5.0,5.0,76,0.00,,,0.00,0,Wunderground v.1.15,2013-03-07 06:40:00,
2013-03-07 00:45:00,67.7,59.9,25.98,ENE,68,3.0,5.0,76,0.00,,,0.00,0,Wunderground v.1.15,2013-03-07 06:45:00,
2013-03-07 00:50:00,67.5,59.7,25.98,ESE,104,1.0,4.0,76,0.00,,,0.00,0,Wunderground v.1.15,2013-03-07 06:50:00,
2013-03-07 01:00:00,67.5,59.7,25.98,East,88,4.0,5.0,76,0.00,,,0.00,0,Wunderground v.1.15,2013-03-07 07:00:00,
2013-03-07 01:05:00,67.3,59.5,25.97,South,170,4.0,7.0,76,0.00,,,0.00,0,Wunderground v.1.15,2013-03-07 07:05:00,
2013-03-07 01:15:00,67.5,59.7,25.97,SE,135,6.0,6.0,76,0.00,,,0.00,0,Wunderground v.1.15,2013-03-07 07:15:00,
2013-03-07 01:20:00,67.5,59.7,25.97,SSE,158,6.0,6.0,76,0.00,,,0.00,0,Wunderground v.1.15,2013-03-07 07:20:00,
2013-03-07 01:25:00,67.5,59.7,25.97,SSE,159,6.0,6.0,76,0.00,,,0.00,0,Wunderground v.1.15,2013-03-07 07:25:00,
2013-03-07 01:30:00,67.5,59.7,25.97,SSE,161,6.0,6.0,76,0.00,,,0.00,0,Wunderground v.1.15,2013-03-07 07:30:00,
2013-03-07 01:35:00,67.5,60.0,25.96,SSE,157,7.0,7.0,77,0.00,,,0.00,0,Wunderground v.1.15,2013-03-07 07:35:00,
2013-03-07 01:50:00,67.2,59.7,25.96,ESE,119,2.0,2.0,77,0.00,,,0.00,0,Wunderground v.1.15,2013-03-07 07:50:00,
2013-03-07 01:55:00,67.2,60.1,25.96,South,180,2.0,3.0,78,0.00,,,0.00,0,Wunderground v.1.15,2013-03-07 07:55:00,
2013-03-07 02:00:00,67.0,59.9,25.96,East,92,2.0,2.0,78,0.00,,,0.00,0,Wunderground v.1.15,2013-03-07 08:00:00,
2013-03-07 02:05:00,66.8,59.7,25.96,ESE,121,2.0,2.0,78,0.00,,,0.00,0,Wunderground v.1.15,2013-03-07 08:05:00,
2013-03-07 02:15:00,67.0,59.9,25.96,NE,55,1.0,3.0,78,0.00,,,0.00,0,Wunderground v.1.15,2013-03-07 08:15:00,
2013-03-07 02:20:00,66.8,59.7,25.96,ENE,65,1.0,1.0,78,0.00,,,0.00,0,Wunderground v.1.15,2013-03-07 08:20:00,
2013-03-07 02:25:00,66.8,59.7,25.96,ENE,58,1.0,1.0,78,0.00,,,0.00,0,Wunderground v.1.15,2013-03-07 08:25:00,
2013-03-07 02:35:00,67.0,59.9,25.95,ENE,68,1.0,3.0,78,0.00,,,0.00,0,Wunderground v.1.15,2013-03-07 08:35:00,
2013-03-07 02:40:00,67.0,59.9,25.95,East,95,2.0,2.0,78,0.00,,,0.00,0,Wunderground v.1.15,2013-03-07 08:40:00,
2013-03-07 02:45:00,67.0,59.9,25.95,SSE,154,2.0,4.0,78,0.00,,,0.00,0,Wunderground v.1.15,2013-03-07 08:45:00,
2013-03-07 02:50:00,67.0,60.3,25.96,East,93,3.0,4.0,79,0.00,,,0.00,0,Wunderground v.1.15,2013-03-07 08:50:00,
2013-03-07 02:55:00,66.8,60.1,25.95,ESE,123,2.0,4.0,79,0.00,,,0.00,0,Wunderground v.1.15,2013-03-07 08:55:00,
2013-03-07 03:00:00,66.8,59.4,25.95,SE,140,2.0,2.0,77,0.00,,,0.00,0,Wunderground v.1.15,2013-03-07 09:00:00,
2013-03-07 03:10:00,66.8,59.4,25.94,SE,140,4.0,6.0,77,0.00,,,0.00,0,Wunderground v.1.15,2013-03-07 09:10:00,
2013-03-07 03:15:00,67.0,59.5,25.95,East,100,4.0,6.0,77,0.00,,,0.00,0,Wunderground v.1.15,2013-03-07 09:15:00,
2013-03-07 03:20:00,67.0,59.5,25.95,ESE,113,2.0,5.0,77,0.00,,,0.00,0,Wunderground v.1.15,2013-03-07 09:20:00,
2013-03-07 03:25:00,66.8,59.7,25.95,NNW,339,2.0,5.0,78,0.00,,,0.00,0,Wunderground v.1.15,2013-03-07 09:25:00,
2013-03-07 03:30:00,66.7,59.3,25.95,NE,41,1.0,1.0,77,0.00,,,0.00,0,Wunderground v.1.15,2013-03-07 09:30:00,
2013-03-07 03:35:00,66.7,59.6,25.95,East,93,0.0,1.0,78,0.00,,,0.00,0,Wunderground v.1.15,2013-03-07 09:35:00,
2013-03-07 03:45:00,66.7,59.3,25.95,ESE,123,1.0,1.0,77,0.00,,,0.00,0,Wunderground v.1.15,2013-03-07 09:45:00,
2013-03-07 03:55:00,66.7,59.3,25.95,ENE,78,1.0,4.0,77,0.00,,,0.00,0,Wunderground v.1.15,2013-03-07 09:55:00,
2013-03-07 04:00:00,66.8,59.4,25.95,SE,126,2.0,2.0,77,0.00,,,0.00,0,Wunderground v.1.15,2013-03-07 10:00:00,
2013-03-07 04:05:00,66.8,59.4,25.95,SSE,161,3.0,3.0,77,0.00,,,0.00,0,Wunderground v.1.15,2013-03-07 10:05:00,
2013-03-07 04:10:00,66.8,59.4,25.95,SE,142,3.0,3.0,77,0.00,,,0.00,0,Wunderground v.1.15,2013-03-07 10:10:00,
2013-03-07 04:15:00,66.8,59.7,25.96,ENE,72,4.0,4.0,78,0.00,,,0.00,0,Wunderground v.1.15,2013-03-07 10:15:00,
2013-03-07 04:20:00,66.8,59.7,25.96,East,93,2.0,2.0,78,0.00,,,0.00,0,Wunderground v.1.15,2013-03-07 10:20:00,
2013-03-07 04:30:00,66.8,59.7,25.96,ESE,122,2.0,2.0,78,0.00,,,0.00,0,Wunderground v.1.15,2013-03-07 10:30:00,
2013-03-07 04:40:00,67.0,59.5,25.96,SE,144,3.0,3.0,77,0.00,,,0.00,0,Wunderground v.1.15,2013-03-07 10:40:00,
2013-03-07 04:45:00,67.2,59.7,25.96,NE,56,2.0,3.0,77,0.00,,,0.00,0,Wunderground v.1.15,2013-03-07 10:45:00,
2013-03-07 04:50:00,67.2,59.7,25.96,ENE,68,2.0,2.0,77,0.00,,,0.00,0,Wunderground v.1.15,2013-03-07 10:50:00,
2013-03-07 04:55:00,67.2,59.7,25.96,ENE,68,1.0,2.0,77,0.00,,,0.00,0,Wunderground v.1.15,2013-03-07 10:55:00,
2013-03-07 05:00:00,67.2,59.7,25.97,WNW,296,0.0,3.0,77,0.00,,,0.00,0,Wunderground v.1.15,2013-03-07 11:00:00,
2013-03-07 05:05:00,67.2,59.4,25.97,East,95,2.0,6.0,76,0.00,,,0.00,0,Wunderground v.1.15,2013-03-07 11:05:00,
2013-03-07 05:10:00,67.3,59.5,25.97,ESE,103,2.0,2.0,76,0.00,,,0.00,0,Wunderground v.1.15,2013-03-07 11:10:00,
2013-03-07 05:20:00,67.2,59.7,25.97,ESE,103,0.0,1.0,77,0.00,,,0.00,0,Wunderground v.1.15,2013-03-07 11:20:00,
2013-03-07 05:25:00,67.2,59.4,25.97,ENE,76,1.0,1.0,76,0.00,,,0.00,0,Wunderground v.1.15,2013-03-07 11:25:00,
2013-03-07 05:30:00,67.2,59.4,25.98,SSE,158,2.0,2.0,76,0.00,,,0.00,0,Wunderground v.1.15,2013-03-07 11:30:00,
2013-03-07 05:35:00,67.2,59.4,25.98,NE,40,2.0,2.0,76,0.00,,,0.00,0,Wunderground v.1.15,2013-03-07 11:35:00,
2013-03-07 05:45:00,67.2,59.4,25.98,East,98,1.0,4.0,76,0.00,,,0.00,0,Wunderground v.1.15,2013-03-07 11:45:00,
2013-03-07 05:50:00,67.2,59.7,25.98,ENE,72,2.0,2.0,77,0.00,,,0.00,0,Wunderground v.1.15,2013-03-07 11:50:00,
2013-03-07 05:55:00,67.2,59.7,25.98,SSW,213,2.0,4.0,77,0.00,,,0.00,0,Wunderground v.1.15,2013-03-07 11:55:00,
2013-03-07 06:00:00,67.2,59.7,25.98,East,97,3.0,5.0,77,0.00,,,0.00,5,Wunderground v.1.15,2013-03-07 12:00:00,
2013-03-07 06:05:00,67.2,59.7,25.98,South,170,4.0,5.0,77,0.00,,,0.00,5,Wunderground v.1.15,2013-03-07 12:05:00,
2013-03-07 06:15:00,67.2,59.7,25.99,ESE,105,2.0,3.0,77,0.00,,,0.00,12,Wunderground v.1.15,2013-03-07 12:15:00,
2013-03-07 06:20:00,67.2,59.7,25.99,SE,133,3.0,3.0,77,0.00,,,0.00,30,Wunderground v.1.15,2013-03-07 12:20:00,
2013-03-07 06:25:00,67.3,59.8,25.99,SSE,148,3.0,5.0,77,0.00,,,0.00,58,Wunderground v.1.15,2013-03-07 12:25:00,
2013-03-07 06:30:00,67.7,59.9,25.99,NE,53,3.0,5.0,76,0.00,,,0.00,183,Wunderground v.1.15,2013-03-07 12:30:00,
2013-03-07 06:35:00,68.2,60.0,25.99,ENE,63,3.0,5.0,75,0.00,,,0.00,186,Wunderground v.1.15,2013-03-07 12:35:00,
2013-03-07 06:40:00,68.7,60.1,25.99,East,94,3.0,3.0,74,0.00,,,0.00,111,Wunderground v.1.15,2013-03-07 12:40:00,
2013-03-07 06:45:00,69.0,60.0,25.99,East,89,2.0,3.0,73,0.00,,,0.00,65,Wunderground v.1.15,2013-03-07 12:45:00,
2013-03-07 06:50:00,69.3,59.9,25.99,SSE,157,2.0,2.0,72,0.00,,,0.00,105,Wunderground v.1.15,2013-03-07 12:50:00,
2013-03-07 06:55:00,69.5,60.1,25.99,SSE,153,2.0,6.0,72,0.00,,,0.00,91,Wunderground v.1.15,2013-03-07 12:55:00,
2013-03-07 07:05:00,69.7,59.9,26.00,SSE,155,3.0,4.0,71,0.00,,,0.00,111,Wunderground v.1.15,2013-03-07 13:05:00,
2013-03-07 07:15:00,70.7,59.6,26.00,SSE,153,4.0,6.0,68,0.00,,,0.00,102,Wunderground v.1.15,2013-03-07 13:15:00,
2013-03-07 07:25:00,70.7,60.0,26.00,NNE,13,5.0,5.0,69,0.00,,,0.00,139,Wunderground v.1.15,2013-03-07 13:25:00,
2013-03-07 07:35:00,70.2,59.6,26.00,North,360,4.0,4.0,69,0.00,,,0.00,86,Wunderground v.1.15,2013-03-07 13:35:00,
2013-03-07 07:40:00,70.0,59.8,26.00,SSE,155,5.0,6.0,70,0.00,,,0.00,91,Wunderground v.1.15,2013-03-07 13:40:00,
2013-03-07 07:45:00,69.7,59.9,26.00,South,173,5.0,6.0,71,0.00,,,0.00,91,Wunderground v.1.15,2013-03-07 13:45:00,
2013-03-07 07:50:00,69.5,59.7,26.00,South,169,5.0,8.0,71,0.00,,,0.00,109,Wunderground v.1.15,2013-03-07 13:50:00,
2013-03-07 07:55:00,69.5,59.7,26.00,NE,55,5.0,8.0,71,0.00,,,0.00,88,Wunderground v.1.15,2013-03-07 13:55:00,
2013-03-07 08:05:00,69.7,59.9,26.01,SE,132,3.0,5.0,71,0.00,,,0.00,123,Wunderground v.1.15,2013-03-07 14:05:00,
2013-03-07 08:10:00,69.3,60.3,26.01,NW,313,3.0,3.0,73,0.00,,,0.00,91,Wunderground v.1.15,2013-03-07 14:10:00,
2013-03-07 08:15:00,68.7,60.5,26.02,ESE,121,4.0,4.0,75,0.00,,,0.00,90,Wunderground v.1.15,2013-03-07 14:15:00,
2013-03-07 08:20:00,68.3,60.1,26.02,East,96,4.0,4.0,75,0.00,,,0.00,84,Wunderground v.1.15,2013-03-07 14:20:00,
2013-03-07 08:30:00,67.7,59.9,26.03,SE,128,4.0,4.0,76,0.00,,,0.00,172,Wunderground v.1.15,2013-03-07 14:30:00,
2013-03-07 08:35:00,67.5,59.7,26.03,NE,46,5.0,7.0,76,0.00,,,0.00,135,Wunderground v.1.15,2013-03-07 14:35:00,
2013-03-07 08:40:00,67.2,59.7,26.03,SE,146,5.0,5.0,77,0.00,,,0.00,183,Wunderground v.1.15,2013-03-07 14:40:00,
2013-03-07 08:45:00,67.2,59.4,26.03,SSE,166,6.0,6.0,76,0.00,,,0.00,232,Wunderground v.1.15,2013-03-07 14:45:00,
2013-03-07 08:55:00,67.7,59.5,26.02,NNE,30,4.0,6.0,75,0.00,,,0.00,522,Wunderground v.1.15,2013-03-07 14:55:00,
2013-03-07 09:00:00,68.2,59.6,26.02,SSE,161,5.0,8.0,74,0.00,,,0.00,563,Wunderground v.1.15,2013-03-07 15:00:00,
2013-03-07 09:06:00,68.5,59.5,26.03,South,180,5.0,8.0,73,0.00,,,0.00,299,Wunderground v.1.15,2013-03-07 15:06:00,
2013-03-07 09:15:00,67.3,59.5,26.03,North,11,6.0,6.0,76,0.00,,,0.00,104,Wunderground v.1.15,2013-03-07 15:15:00,
2013-03-07 09:20:00,66.5,59.4,26.03,SE,128,6.0,6.0,78,0.00,,,0.00,142,Wunderground v.1.15,2013-03-07 15:20:00,
2013-03-07 09:30:00,66.3,59.2,26.03,NNE,14,4.0,9.0,78,0.00,,,0.00,178,Wunderground v.1.15,2013-03-07 15:30:00,
2013-03-07 09:35:00,66.3,59.2,26.03,NE,36,4.0,9.0,78,0.00,,,0.00,236,Wunderground v.1.15,2013-03-07 15:35:00,
2013-03-07 09:40:00,66.8,59.4,26.02,SE,128,5.0,14.0,77,0.00,,,0.00,315,Wunderground v.1.15,2013-03-07 15:40:00,
2013-03-07 09:45:00,67.3,59.5,26.02,SE,131,7.0,14.0,76,0.00,,,0.00,283,Wunderground v.1.15,2013-03-07 15:45:00,
2013-03-07 09:50:00,67.5,59.7,26.02,NNW,327,8.0,8.0,76,0.00,,,0.00,220,Wunderground v.1.15,2013-03-07 15:50:00,
2013-03-07 10:00:00,67.5,59.7,26.02,East,98,8.0,8.0,76,0.00,,,0.00,478,Wunderground v.1.15,2013-03-07 16:00:00,
2013-03-07 10:05:00,68.0,59.8,26.02,ENE,57,7.0,11.0,75,0.00,,,0.00,388,Wunderground v.1.15,2013-03-07 16:05:00,
2013-03-07 10:10:00,68.3,59.7,26.03,SE,144,6.0,6.0,74,0.00,,,0.00,371,Wunderground v.1.15,2013-03-07 16:10:00,
2013-03-07 10:15:00,68.8,59.8,26.03,East,89,6.0,11.0,73,0.00,,,0.00,250,Wunderground v.1.15,2013-03-07 16:15:00,
2013-03-07 10:25:00,67.7,59.9,26.02,SE,130,7.0,8.0,76,0.00,,,0.00,283,Wunderground v.1.15,2013-03-07 16:25:00,
2013-03-07 10:30:00,67.7,59.9,26.02,East,94,6.0,6.0,76,0.00,,,0.00,445,Wunderground v.1.15,2013-03-07 16:30:00,
2013-03-07 10:35:00,68.7,60.5,26.01,NNE,15,6.0,6.0,75,0.00,,,0.00,613,Wunderground v.1.15,2013-03-07 16:35:00,
2013-03-07 10:40:00,69.5,60.5,26.01,SE,142,5.0,5.0,73,0.00,,,0.00,399,Wunderground v.1.15,2013-03-07 16:40:00,
2013-03-07 10:50:00,70.2,60.4,26.01,North,355,6.0,6.0,71,0.00,,,0.00,464,Wunderground v.1.15,2013-03-07 16:50:00,
2013-03-07 10:55:00,70.0,60.2,26.01,ESE,109,7.0,9.0,71,0.00,,,0.00,410,Wunderground v.1.15,2013-03-07 16:55:00,
2013-03-07 11:00:00,70.0,60.2,26.00,WNW,299,7.0,7.0,71,0.00,,,0.00,404,Wunderground v.1.15,2013-03-07 17:00:00,
2013-03-07 11:05:00,70.2,60.7,26.00,ENE,63,6.0,7.0,72,0.00,,,0.00,378,Wunderground v.1.15,2013-03-07 17:05:00,
2013-03-07 11:15:00,70.3,60.8,25.99,NE,37,7.0,9.0,72,0.00,,,0.00,459,Wunderground v.1.15,2013-03-07 17:15:00,
2013-03-07 11:20:00,71.0,60.7,25.99,South,178,6.0,6.0,70,0.00,,,0.00,260,Wunderground v.1.15,2013-03-07 17:20:00,
2013-03-07 11:25:00,71.2,60.9,25.99,WNW,288,5.0,6.0,70,0.00,,,0.00,250,Wunderground v.1.15,2013-03-07 17:25:00,
2013-03-07 11:30:00,71.2,60.9,25.99,ESE,105,5.0,9.0,70,0.00,,,0.00,294,Wunderground v.1.15,2013-03-07 17:30:00,
2013-03-07 11:35:00,71.0,61.1,25.99,East,82,6.0,9.0,71,0.00,,,0.00,283,Wunderground v.1.15,2013-03-07 17:35:00,
2013-03-07 11:45:00,70.8,60.9,25.98,West,277,5.0,5.0,71,0.00,,,0.00,230,Wunderground v.1.15,2013-03-07 17:45:00,
2013-03-07 11:50:00,70.8,60.9,25.98,NNW,338,6.0,6.0,71,0.00,,,0.00,202,Wunderground v.1.15,2013-03-07 17:50:00,
2013-03-07 11:55:00,71.0,61.1,25.98,ESE,102,6.0,6.0,71,0.00,,,0.00,239,Wunderground v.1.15,2013-03-07 17:55:00,
2013-03-07 12:05:00,71.5,61.2,25.97,East,94,5.0,8.0,70,0.00,,,0.00,234,Wunderground v.1.15,2013-03-07 18:05:00,
2013-03-07 12:10:00,71.7,61.0,25.97,ESE,109,6.0,13.0,69,0.00,,,0.00,155,Wunderground v.1.15,2013-03-07 18:10:00,
2013-03-07 12:15:00,71.0,61.1,25.97,East,97,6.0,13.0,71,0.00,,,0.00,141,Wunderground v.1.15,2013-03-07 18:15:00,
2013-03-07 12:20:00,70.8,60.9,25.97,ENE,78,6.0,6.0,71,0.00,,,0.00,197,Wunderground v.1.15,2013-03-07 18:20:00,
2013-03-07 12:30:00,71.2,61.3,25.97,NE,47,3.0,3.0,71,0.00,,,0.00,185,Wunderground v.1.15,2013-03-07 18:30:00,
2013-03-07 12:35:00,71.4,61.1,25.97,SSE,159,3.0,3.0,70,0.00,,,0.00,163,Wunderground v.1.15,2013-03-07 18:35:00,
2013-03-07 12:40:00,71.5,60.8,25.97,SE,140,4.0,5.0,69,0.00,,,0.00,243,Wunderground v.1.15,2013-03-07 18:40:00,
2013-03-07 12:45:00,71.4,60.7,25.97,East,84,5.0,5.0,69,0.00,,,0.00,139,Wunderground v.1.15,2013-03-07 18:45:00,
2013-03-07 12:50:00,71.5,60.8,25.96,ESE,105,5.0,12.0,69,0.00,,,0.00,190,Wunderground v.1.15,2013-03-07 18:50:00,
2013-03-07 12:55:00,71.5,61.2,25.97,ENE,64,6.0,12.0,70,0.00,,,0.00,118,Wunderground v.1.15,2013-03-07 18:55:00,
2013-03-07 13:05:00,71.2,60.9,25.96,East,101,4.0,6.0,70,0.00,,,0.00,330,Wunderground v.1.15,2013-03-07 19:05:00,
2013-03-07 13:10:00,71.5,60.8,25.96,NNE,23,4.0,6.0,69,0.00,,,0.00,362,Wunderground v.1.15,2013-03-07 19:10:00,
2013-03-07 13:20:00,72.0,60.9,25.95,NNE,26,4.0,6.0,68,0.00,,,0.00,299,Wunderground v.1.15,2013-03-07 19:20:00,
2013-03-07 13:25:00,72.2,61.0,25.95,NW,312,4.0,6.0,68,0.00,,,0.00,429,Wunderground v.1.15,2013-03-07 19:25:00,
2013-03-07 13:30:00,72.4,61.2,25.95,North,5,4.0,4.0,68,0.00,,,0.00,336,Wunderground v.1.15,2013-03-07 19:30:00,
2013-03-07 13:35:00,73.1,61.1,25.94,ESE,105,3.0,8.0,66,0.00,,,0.00,478,Wunderground v.1.15,2013-03-07 19:35:00,
2013-03-07 13:40:00,73.1,61.1,25.94,NE,36,5.0,5.0,66,0.00,,,0.00,332,Wunderground v.1.15,2013-03-07 19:40:00,
2013-03-07 13:45:00,72.7,61.1,25.94,WNW,282,5.0,5.0,67,0.00,,,0.00,148,Wunderground v.1.15,2013-03-07 19:45:00,
2013-03-07 13:55:00,71.9,60.8,25.94,NE,36,5.0,5.0,68,0.00,,,0.00,174,Wunderground v.1.15,2013-03-07 19:55:00,
2013-03-07 14:00:00,71.7,60.6,25.94,South,169,6.0,6.0,68,0.00,,,0.00,146,Wunderground v.1.15,2013-03-07 20:00:00,
2013-03-07 14:10:00,71.7,60.2,25.94,South,190,6.0,6.0,67,0.00,,,0.00,221,Wunderground v.1.15,2013-03-07 20:10:00,
2013-03-07 14:15:00,71.5,60.0,25.93,ENE,59,7.0,7.0,67,0.00,,,0.00,243,Wunderground v.1.15,2013-03-07 20:15:00,
2013-03-07 14:20:00,71.7,60.2,25.94,NNE,12,6.0,6.0,67,0.00,,,0.00,113,Wunderground v.1.15,2013-03-07 20:20:00,
2013-03-07 14:25:00,71.5,60.8,25.93,NNE,28,5.0,6.0,69,0.00,,,0.00,146,Wunderground v.1.15,2013-03-07 20:25:00,
2013-03-07 14:35:00,70.5,61.0,25.93,NE,53,4.0,4.0,72,0.00,,,0.00,195,Wunderground v.1.15,2013-03-07 20:35:00,
2013-03-07 14:40:00,70.2,61.1,25.93,ESE,121,4.0,4.0,73,0.00,,,0.00,132,Wunderground v.1.15,2013-03-07 20:40:00,
2013-03-07 14:45:00,70.0,60.9,25.93,ENE,77,5.0,6.0,73,0.00,,,0.00,142,Wunderground v.1.15,2013-03-07 20:45:00,
2013-03-07 14:50:00,70.2,60.7,25.93,WNW,288,5.0,5.0,72,0.00,,,0.00,183,Wunderground v.1.15,2013-03-07 20:50:00,
2013-03-07 14:55:00,70.3,60.8,25.93,East,88,4.0,5.0,72,0.00,,,0.00,193,Wunderground v.1.15,2013-03-07 20:55:00,
2013-03-07 15:00:00,70.5,61.0,25.93,East,95,4.0,4.0,72,0.00,,,0.00,163,Wunderground v.1.15,2013-03-07 21:00:00,
2013-03-07 15:05:00,70.5,61.0,25.93,North,5,4.0,11.0,72,0.00,,,0.00,105,Wunderground v.1.15,2013-03-07 21:05:00,
2013-03-07 15:10:00,69.8,61.1,25.94,East,94,5.0,6.0,74,0.00,,,0.00,135,Wunderground v.1.15,2013-03-07 21:10:00,
2013-03-07 15:15:00,69.7,61.4,25.93,WNW,303,6.0,6.0,75,0.00,,,0.00,132,Wunderground v.1.15,2013-03-07 21:15:00,
2013-03-07 15:25:00,69.7,61.0,25.94,East,86,4.0,5.0,74,0.00,,,0.00,97,Wunderground v.1.15,2013-03-07 21:25:00,
2013-03-07 15:30:00,69.7,61.0,25.94,ENE,64,4.0,4.0,74,0.00,,,0.00,98,Wunderground v.1.15,2013-03-07 21:30:00,
2013-03-07 15:40:00,69.5,61.6,25.93,ENE,61,3.0,3.0,76,0.00,,,0.00,81,Wunderground v.1.15,2013-03-07 21:40:00,
2013-03-07 15:45:00,69.3,61.4,25.93,NE,45,2.0,3.0,76,0.00,,,0.00,98,Wunderground v.1.15,2013-03-07 21:45:00,
2013-03-07 15:50:00,69.2,61.3,25.94,NW,311,2.0,2.0,76,0.00,,,0.00,90,Wunderground v.1.15,2013-03-07 21:50:00,
2013-03-07 15:55:00,69.3,61.0,25.94,ENE,62,2.0,3.0,75,0.00,,,0.00,83,Wunderground v.1.15,2013-03-07 21:55:00,
2013-03-07 16:00:00,69.7,61.0,25.93,SSE,153,2.0,2.0,74,0.00,,,0.00,88,Wunderground v.1.15,2013-03-07 22:00:00,
2013-03-07 16:10:00,70.0,60.6,25.94,SSE,165,1.0,1.0,72,0.00,,,0.00,74,Wunderground v.1.15,2013-03-07 22:10:00,
2013-03-07 16:20:00,70.0,60.6,25.94,SSE,155,3.0,5.0,72,0.00,,,0.00,69,Wunderground v.1.15,2013-03-07 22:20:00,
2013-03-07 16:25:00,70.0,60.2,25.95,East,97,2.0,5.0,71,0.00,,,0.00,60,Wunderground v.1.15,2013-03-07 22:25:00,
2013-03-07 16:30:00,69.8,60.4,25.95,North,5,2.0,3.0,72,0.00,,,0.00,65,Wunderground v.1.15,2013-03-07 22:30:00,
2013-03-07 16:35:00,69.5,60.5,25.95,NW,323,2.0,3.0,73,0.00,,,0.00,53,Wunderground v.1.15,2013-03-07 22:35:00,
2013-03-07 16:45:00,69.0,60.4,25.95,NNW,327,3.0,3.0,74,0.00,,,0.00,49,Wunderground v.1.15,2013-03-07 22:45:00,
2013-03-07 16:50:00,68.7,60.1,25.94,ENE,69,4.0,4.0,74,0.00,,,0.00,53,Wunderground v.1.15,2013-03-07 22:50:00,
2013-03-07 16:55:00,68.7,60.5,25.95,NW,326,3.0,6.0,75,0.00,,,0.00,42,Wunderground v.1.15,2013-03-07 22:55:00,
2013-03-07 17:00:00,68.2,60.3,25.95,NNE,29,3.0,7.0,76,0.00,,,0.00,44,Wunderground v.1.15,2013-03-07 23:00:00,
2013-03-07 17:05:00,67.7,60.2,25.94,NNE,17,4.0,7.0,77,0.00,,,0.00,44,Wunderground v.1.15,2013-03-07 23:05:00,
2013-03-07 17:10:00,67.3,60.6,25.95,West,273,4.0,4.0,79,0.00,,,0.00,49,Wunderground v.1.15,2013-03-07 23:10:00,
2013-03-07 17:20:00,66.7,60.3,25.95,ESE,112,4.0,6.0,80,0.00,,,0.00,32,Wunderground v.1.15,2013-03-07 23:20:00,
2013-03-07 17:30:00,66.8,60.1,25.95,East,101,3.0,4.0,79,0.00,,,0.00,16,Wunderground v.1.15,2013-03-07 23:30:00,
2013-03-07 17:35:00,66.8,59.7,25.95,SSE,151,2.0,4.0,78,0.00,,,0.00,11,Wunderground v.1.15,2013-03-07 23:35:00,
2013-03-07 17:40:00,66.8,59.4,25.96,NW,315,3.0,4.0,77,0.00,,,0.00,9,Wunderground v.1.15,2013-03-07 23:40:00,
2013-03-07 17:45:00,66.8,59.7,25.95,SSW,197,4.0,4.0,78,0.00,,,0.00,5,Wunderground v.1.15,2013-03-07 23:45:00,
2013-03-07 17:50:00,66.8,59.7,25.95,NW,313,3.0,3.0,78,0.00,,,0.00,0,Wunderground v.1.15,2013-03-07 23:50:00,
2013-03-07 18:00:00,66.5,60.1,25.96,East,98,4.0,5.0,80,0.00,,,0.00,0,Wunderground v.1.15,2013-03-08 00:00:00,
2013-03-07 18:05:00,66.3,60.3,25.96,ENE,78,3.0,5.0,81,0.00,,,0.00,0,Wunderground v.1.15,2013-03-08 00:05:00,
2013-03-07 18:15:00,66.3,59.9,25.96,ESE,121,3.0,5.0,80,0.00,,,0.00,0,Wunderground v.1.15,2013-03-08 00:15:00,
2013-03-07 18:20:00,66.5,60.1,25.96,NNE,25,3.0,4.0,80,0.00,,,0.00,0,Wunderground v.1.15,2013-03-08 00:20:00,
2013-03-07 18:25:00,66.5,60.1,25.97,ENE,69,3.0,5.0,80,0.00,,,0.00,0,Wunderground v.1.15,2013-03-08 00:25:00,
2013-03-07 18:30:00,66.3,60.3,25.97,SE,142,5.0,8.0,81,0.00,,,0.00,0,Wunderground v.1.15,2013-03-08 00:30:00,
2013-03-07 18:35:00,66.2,60.5,25.97,SE,144,5.0,8.0,82,0.00,,,0.00,0,Wunderground v.1.15,2013-03-08 00:35:00,
2013-03-07 18:45:00,66.0,60.7,25.98,SE,142,4.0,5.0,83,0.00,,,0.00,0,Wunderground v.1.15,2013-03-08 00:45:00,
2013-03-07 18:50:00,65.9,60.6,25.98,ENE,78,4.0,6.0,83,0.00,,,0.00,0,Wunderground v.1.15,2013-03-08 00:50:00,
2013-03-07 18:55:00,66.0,60.3,25.98,East,90,3.0,7.0,82,0.00,,,0.00,0,Wunderground v.1.15,2013-03-08 00:55:00,
2013-03-07 19:05:00,66.7,60.0,25.98,SSE,165,6.0,7.0,79,0.00,,,0.00,0,Wunderground v.1.15,2013-03-08 01:05:00,
2013-03-07 19:10:00,67.0,59.9,25.98,South,173,6.0,6.0,78,0.00,,,0.00,0,Wunderground v.1.15,2013-03-08 01:10:00,
2013-03-07 19:15:00,67.3,59.8,25.98,SE,144,4.0,6.0,77,0.00,,,0.00,0,Wunderground v.1.15,2013-03-08 01:15:00,
2013-03-07 19:20:00,67.5,59.7,25.98,East,96,4.0,4.0,76,0.00,,,0.00,0,Wunderground v.1.15,2013-03-08 01:20:00,
2013-03-07 19:25:00,67.7,59.9,25.98,SSE,168,5.0,5.0,76,0.00,,,0.00,0,Wunderground v.1.15,2013-03-08 01:25:00,
2013-03-07 19:30:00,67.8,59.6,25.98,SE,146,4.0,4.0,75,0.00,,,0.00,0,Wunderground v.1.15,2013-03-08 01:30:00,
2013-03-07 19:35:00,68.0,59.8,25.99,ESE,123,4.0,4.0,75,0.00,,,0.00,0,Wunderground v.1.15,2013-03-08 01:35:00,
2013-03-07 19:40:00,68.0,59.8,25.99,East,98,5.0,5.0,75,0.00,,,0.00,0,Wunderground v.1.15,2013-03-08 01:40:00,
2013-03-07 19:45:00,67.7,59.9,25.99,SE,132,6.0,6.0,76,0.00,,,0.00,0,Wunderground v.1.15,2013-03-08 01:45:00,
2013-03-07 19:55:00,67.2,59.7,25.99,SE,146,5.0,6.0,77,0.00,,,0.00,0,Wunderground v.1.15,2013-03-08 01:55:00,
2013-03-07 20:00:00,67.2,59.7,25.99,ESE,113,5.0,5.0,77,0.00,,,0.00,0,Wunderground v.1.15,2013-03-08 02:00:00,
2013-03-07 20:10:00,67.3,59.5,26.00,SSE,157,6.0,8.0,76,0.00,,,0.00,0,Wunderground v.1.15,2013-03-08 02:10:00,
2013-03-07 20:15:00,67.5,59.3,25.99,SE,145,6.0,8.0,75,0.00,,,0.00,0,Wunderground v.1.15,2013-03-08 02:15:00,
2013-03-07 20:20:00,67.5,59.3,26.00,SSE,153,4.0,4.0,75,0.00,,,0.00,0,Wunderground v.1.15,2013-03-08 02:20:00,
2013-03-07 20:30:00,67.5,59.3,26.00,ENE,64,2.0,4.0,75,0.00,,,0.00,0,Wunderground v.1.15,2013-03-08 02:30:00,
2013-03-07 20:35:00,67.7,59.1,26.00,ENE,71,3.0,4.0,74,0.00,,,0.00,0,Wunderground v.1.15,2013-03-08 02:35:00,
2013-03-07 20:40:00,67.7,59.5,26.00,ESE,116,2.0,2.0,75,0.00,,,0.00,0,Wunderground v.1.15,2013-03-08 02:40:00,
2013-03-07 20:45:00,67.7,59.5,26.00,SE,131,1.0,2.0,75,0.00,,,0.00,0,Wunderground v.1.15,2013-03-08 02:45:00,
2013-03-07 20:55:00,67.7,59.1,26.00,SE,146,2.0,2.0,74,0.00,,,0.00,0,Wunderground v.1.15,2013-03-08 02:55:00,
2013-03-07 21:00:00,67.7,59.1,25.99,SSE,155,2.0,2.0,74,0.00,,,0.00,0,Wunderground v.1.15,2013-03-08 03:00:00,
2013-03-07 21:05:00,67.7,59.1,26.00,ENE,63,1.0,6.0,74,0.00,,,0.00,0,Wunderground v.1.15,2013-03-08 03:05:00,
2013-03-07 21:10:00,67.8,58.8,26.00,NNW,335,2.0,2.0,73,0.00,,,0.00,0,Wunderground v.1.15,2013-03-08 03:10:00,
2013-03-07 21:15:00,67.8,59.2,26.00,NNW,335,2.0,2.0,74,0.00,,,0.00,0,Wunderground v.1.15,2013-03-08 03:15:00,
2013-03-07 21:20:00,67.7,59.1,26.00,West,271,0.0,1.0,74,0.00,,,0.00,0,Wunderground v.1.15,2013-03-08 03:20:00,
2013-03-07 21:30:00,67.5,59.3,26.00,East,96,1.0,1.0,75,0.00,,,0.00,0,Wunderground v.1.15,2013-03-08 03:30:00,
2013-03-07 21:35:00,67.3,59.1,26.00,ENE,69,2.0,5.0,75,0.00,,,0.00,0,Wunderground v.1.15,2013-03-08 03:35:00,
2013-03-07 21:40:00,67.3,59.1,26.01,East,96,2.0,2.0,75,0.00,,,0.00,0,Wunderground v.1.15,2013-03-08 03:40:00,
2013-03-07 21:45:00,67.3,58.7,26.00,South,177,2.0,2.0,74,0.00,,,0.00,0,Wunderground v.1.15,2013-03-08 03:45:00,
2013-03-07 21:55:00,67.2,58.6,26.00,SE,136,1.0,5.0,74,0.00,,,0.00,0,Wunderground v.1.15,2013-03-08 03:55:00,
2013-03-07 22:05:00,67.2,59.0,26.00,North,355,3.0,3.0,75,0.00,,,0.00,0,Wunderground v.1.15,2013-03-08 04:05:00,
2013-03-07 22:10:00,67.0,58.8,26.00,SE,135,2.0,2.0,75,0.00,,,0.00,0,Wunderground v.1.15,2013-03-08 04:10:00,
2013-03-07 22:15:00,67.0,58.8,26.00,ENE,67,2.0,2.0,75,0.00,,,0.00,0,Wunderground v.1.15,2013-03-08 04:15:00,
2013-03-07 22:20:00,67.0,58.8,26.00,ENE,71,1.0,2.0,75,0.00,,,0.00,0,Wunderground v.1.15,2013-03-08 04:20:00,
2013-03-07 22:25:00,67.0,58.8,26.00,ENE,59,1.0,5.0,75,0.00,,,0.00,0,Wunderground v.1.15,2013-03-08 04:25:00,
2013-03-07 22:35:00,67.0,58.8,26.00,WSW,257,3.0,3.0,75,0.00,,,0.00,0,Wunderground v.1.15,2013-03-08 04:35:00,
2013-03-07 22:40:00,67.0,58.8,26.00,SE,131,4.0,5.0,75,0.00,,,0.00,0,Wunderground v.1.15,2013-03-08 04:40:00,
2013-03-07 22:45:00,66.8,58.6,26.00,SSE,159,4.0,6.0,75,0.00,,,0.00,0,Wunderground v.1.15,2013-03-08 04:45:00,
2013-03-07 22:50:00,66.8,58.6,26.00,South,169,5.0,12.0,75,0.00,,,0.00,0,Wunderground v.1.15,2013-03-08 04:50:00,
2013-03-07 22:55:00,66.8,58.6,26.00,SSE,154,6.0,12.0,75,0.00,,,0.00,0,Wunderground v.1.15,2013-03-08 04:55:00,
2013-03-07 23:00:00,66.8,58.6,26.00,ENE,62,5.0,5.0,75,0.00,,,0.00,0,Wunderground v.1.15,2013-03-08 05:00:00,
2013-03-07 23:05:00,66.7,58.9,26.00,SSE,151,4.0,5.0,76,0.00,,,0.00,0,Wunderground v.1.15,2013-03-08 05:05:00,
2013-03-07 23:10:00,66.7,58.9,26.00,SE,142,4.0,10.0,76,0.00,,,0.00,0,Wunderground v.1.15,2013-03-08 05:10:00,
2013-03-07 23:15:00,66.7,58.9,26.00,East,80,5.0,10.0,76,0.00,,,0.00,0,Wunderground v.1.15,2013-03-08 05:15:00,
2013-03-07 23:20:00,66.8,59.0,26.00,ENE,62,5.0,5.0,76,0.00,,,0.00,0,Wunderground v.1.15,2013-03-08 05:20:00,
2013-03-07 23:25:00,66.8,59.0,26.00,SSE,167,4.0,5.0,76,0.00,,,0.00,0,Wunderground v.1.15,2013-03-08 05:25:00,
2013-03-07 23:30:00,66.8,59.4,26.00,SSE,150,4.0,4.0,77,0.00,,,0.00,0,Wunderground v.1.15,2013-03-08 05:30:00,
2013-03-07 23:35:00,66.7,59.3,26.00,ESE,106,4.0,4.0,77,0.00,,,0.00,0,Wunderground v.1.15,2013-03-08 05:35:00,
2013-03-07 23:40:00,66.5,59.1,25.99,East,94,4.0,4.0,77,0.00,,,0.00,0,Wunderground v.1.15,2013-03-08 05:40:00,
2013-03-07 23:45:00,66.5,58.7,26.00,ESE,105,4.0,4.0,76,0.00,,,0.00,0,Wunderground v.1.15,2013-03-08 05:45:00,
2013-03-07 23:55:00,66.5,58.7,25.99,ENE,73,4.0,11.0,76,0.00,,,0.00,0,Wunderground v.1.15,2013-03-08 05:55:00,